Time,TemperatureF,DewpointF,PressureIn,WindDirection,WindDirectionDegrees,WindSpeedMPH,WindSpeedGustMPH,Humidity,HourlyPrecipIn,Conditions,Clouds,dailyrainin,SoftwareType,DateUTC
2013-05-17 00:01:00,66.0,59.0,30.01,West,263,0.0,0.0,78,0.00,,---,0.00,VWS V14.01,2013-05-17 04:01:00,
2013-05-17 00:06:00,66.0,58.6,30.01,West,263,0.0,0.0,77,0.00,,---,0.00,VWS V14.01,2013-05-17 04:06:00,
2013-05-17 00:11:00,66.0,58.6,30.00,West,263,0.0,0.0,77,0.00,,---,0.00,VWS V14.01,2013-05-17 04:11:00,
2013-05-17 00:16:00,66.0,58.6,30.00,West,263,0.0,0.0,77,0.00,,---,0.00,VWS V14.01,2013-05-17 04:16:00,
2013-05-17 00:21:00,66.0,58.2,30.01,West,263,0.0,0.0,76,0.00,,---,0.00,VWS V14.01,2013-05-17 04:21:00,
2013-05-17 00:26:00,66.1,58.3,30.01,West,263,0.0,1.0,76,0.00,,---,0.00,VWS V14.01,2013-05-17 04:26:00,
2013-05-17 00:31:00,66.1,58.7,30.01,West,263,0.0,1.0,77,0.00,,---,0.00,VWS V14.01,2013-05-17 04:31:00,
2013-05-17 00:36:00,66.1,59.0,30.01,West,263,0.0,0.0,78,0.00,,---,0.00,VWS V14.01,2013-05-17 04:36:00,
2013-05-17 00:41:00,66.0,59.0,30.01,West,263,0.0,0.0,78,0.00,,---,0.00,VWS V14.01,2013-05-17 04:41:00,
2013-05-17 00:46:00,65.9,58.9,30.01,West,263,0.0,0.0,78,0.00,,---,0.00,VWS V14.01,2013-05-17 04:46:00,
2013-05-17 00:51:00,65.8,58.4,30.01,West,263,0.0,0.0,77,0.00,,---,0.00,VWS V14.01,2013-05-17 04:51:00,
2013-05-17 00:56:00,65.8,59.5,30.01,West,263,0.0,0.0,80,0.00,,---,0.00,VWS V14.01,2013-05-17 04:56:00,
2013-05-17 01:01:00,65.6,58.9,30.01,West,263,0.0,0.0,79,0.00,,---,0.00,VWS V14.01,2013-05-17 05:01:00,
2013-05-17 01:06:00,65.4,58.7,30.01,West,263,0.0,0.0,79,0.00,,---,0.00,VWS V14.01,2013-05-17 05:06:00,
2013-05-17 01:11:00,65.2,58.9,30.01,West,263,0.0,0.0,80,0.00,,---,0.00,VWS V14.01,2013-05-17 05:11:00,
2013-05-17 01:16:00,65.0,58.7,30.01,West,263,0.0,0.0,80,0.00,,---,0.00,VWS V14.01,2013-05-17 05:16:00,
2013-05-17 01:21:00,64.9,59.3,30.01,West,263,0.0,0.0,82,0.00,,---,0.00,VWS V14.01,2013-05-17 05:21:00,
2013-05-17 01:26:00,64.6,58.7,30.01,West,263,0.0,0.0,81,0.00,,---,0.00,VWS V14.01,2013-05-17 05:26:00,
2013-05-17 01:31:00,64.4,58.8,30.01,West,263,0.0,0.0,82,0.00,,---,0.00,VWS V14.01,2013-05-17 05:31:00,
2013-05-17 01:36:00,64.2,58.6,30.01,West,263,0.0,0.0,82,0.00,,---,0.00,VWS V14.01,2013-05-17 05:36:00,
2013-05-17 01:41:00,64.0,58.4,30.01,West,263,0.0,0.0,82,0.00,,---,0.00,VWS V14.01,2013-05-17 05:41:00,
2013-05-17 01:46:00,63.7,57.8,30.01,West,263,0.0,0.0,81,0.00,,---,0.00,VWS V14.01,2013-05-17 05:46:00,
2013-05-17 01:51:00,63.5,57.9,30.01,West,263,0.0,0.0,82,0.00,,---,0.00,VWS V14.01,2013-05-17 05:51:00,
2013-05-17 01:55:00,63.4,57.5,30.01,West,263,0.0,0.0,81,0.00,,---,0.00,VWS V14.01,2013-05-17 05:55:00,
2013-05-17 02:00:00,63.3,57.4,30.01,West,263,0.0,0.0,81,0.00,,---,0.00,VWS V14.01,2013-05-17 06:00:00,
2013-05-17 02:05:00,63.3,57.7,30.01,West,263,0.0,0.0,82,0.00,,---,0.00,VWS V14.01,2013-05-17 06:05:00,
2013-05-17 02:10:00,63.3,57.4,30.01,West,263,0.0,0.0,81,0.00,,---,0.00,VWS V14.01,2013-05-17 06:10:00,
2013-05-17 02:15:00,63.3,57.7,30.01,West,263,0.0,0.0,82,0.00,,---,0.00,VWS V14.01,2013-05-17 06:15:00,
2013-05-17 02:20:00,63.2,58.3,30.01,West,263,0.0,0.0,84,0.00,,---,0.00,VWS V14.01,2013-05-17 06:20:00,
2013-05-17 02:25:00,63.0,58.1,30.01,West,263,0.0,0.0,84,0.00,,---,0.00,VWS V14.01,2013-05-17 06:25:00,
2013-05-17 02:30:00,62.8,58.2,30.00,West,263,0.0,0.0,85,0.00,,---,0.00,VWS V14.01,2013-05-17 06:30:00,
2013-05-17 02:35:00,62.6,58.0,30.01,West,263,0.0,0.0,85,0.00,,---,0.00,VWS V14.01,2013-05-17 06:35:00,
2013-05-17 02:40:00,62.5,57.9,30.00,West,263,0.0,0.0,85,0.00,,---,0.00,VWS V14.01,2013-05-17 06:40:00,
2013-05-17 02:45:00,62.4,58.2,30.01,West,263,0.0,0.0,86,0.00,,---,0.00,VWS V14.01,2013-05-17 06:45:00,
2013-05-17 02:50:00,62.2,58.0,30.01,West,263,0.0,0.0,86,0.00,,---,0.00,VWS V14.01,2013-05-17 06:50:00,
2013-05-17 02:55:00,62.2,58.0,30.01,West,263,0.0,0.0,86,0.00,,---,0.00,VWS V14.01,2013-05-17 06:55:00,
2013-05-17 03:00:00,62.0,58.1,30.01,West,263,0.0,0.0,87,0.00,,---,0.00,VWS V14.01,2013-05-17 07:00:00,
2013-05-17 03:05:00,61.9,58.0,30.01,West,263,0.0,0.0,87,0.00,,---,0.00,VWS V14.01,2013-05-17 07:05:00,
2013-05-17 03:10:00,61.8,57.9,30.01,West,263,0.0,0.0,87,0.00,,---,0.00,VWS V14.01,2013-05-17 07:10:00,
2013-05-17 03:15:00,61.8,57.9,30.01,West,263,0.0,0.0,87,0.00,,---,0.00,VWS V14.01,2013-05-17 07:15:00,
2013-05-17 03:20:00,61.7,57.5,30.01,West,263,0.0,0.0,86,0.00,,---,0.00,VWS V14.01,2013-05-17 07:20:00,
2013-05-17 03:25:00,61.7,58.1,30.02,West,263,0.0,0.0,88,0.00,,---,0.00,VWS V14.01,2013-05-17 07:25:00,
2013-05-17 03:30:00,61.6,58.0,30.02,West,263,0.0,0.0,88,0.00,,---,0.00,VWS V14.01,2013-05-17 07:30:00,
2013-05-17 03:35:00,61.5,57.9,30.02,West,263,0.0,0.0,88,0.00,,---,0.00,VWS V14.01,2013-05-17 07:35:00,
2013-05-17 03:40:00,61.4,57.8,30.02,West,263,0.0,0.0,88,0.00,,---,0.00,VWS V14.01,2013-05-17 07:40:00,
2013-05-17 03:45:00,61.3,57.4,30.02,West,263,0.0,0.0,87,0.00,,---,0.00,VWS V14.01,2013-05-17 07:45:00,
2013-05-17 03:50:00,61.3,57.7,30.02,West,263,0.0,0.0,88,0.00,,---,0.00,VWS V14.01,2013-05-17 07:50:00,
2013-05-17 03:55:00,61.4,57.8,30.03,West,263,0.0,0.0,88,0.00,,---,0.00,VWS V14.01,2013-05-17 07:55:00,
2013-05-17 04:00:00,61.5,57.9,30.03,West,263,0.0,0.0,88,0.00,,---,0.00,VWS V14.01,2013-05-17 08:00:00,
2013-05-17 04:05:00,61.4,57.8,30.03,West,263,0.0,0.0,88,0.00,,---,0.00,VWS V14.01,2013-05-17 08:05:00,
2013-05-17 04:10:00,61.4,57.8,30.03,West,263,0.0,0.0,88,0.00,,---,0.00,VWS V14.01,2013-05-17 08:10:00,
2013-05-17 04:15:00,61.3,58.0,30.03,West,263,0.0,0.0,89,0.00,,---,0.00,VWS V14.01,2013-05-17 08:15:00,
2013-05-17 04:20:00,61.3,58.0,30.03,West,263,0.0,0.0,89,0.00,,---,0.00,VWS V14.01,2013-05-17 08:20:00,
2013-05-17 04:25:00,61.2,57.9,30.03,West,263,0.0,0.0,89,0.00,,---,0.00,VWS V14.01,2013-05-17 08:25:00,
2013-05-17 04:30:00,61.2,57.9,30.03,West,263,0.0,0.0,89,0.00,,---,0.00,VWS V14.01,2013-05-17 08:30:00,
2013-05-17 04:35:00,61.1,58.2,30.03,West,263,0.0,0.0,90,0.00,,---,0.00,VWS V14.01,2013-05-17 08:35:00,
2013-05-17 04:40:00,61.1,58.2,30.03,West,263,0.0,0.0,90,0.00,,---,0.00,VWS V14.01,2013-05-17 08:40:00,
2013-05-17 04:45:00,61.1,58.2,30.03,West,263,0.0,0.0,90,0.00,,---,0.00,VWS V14.01,2013-05-17 08:45:00,
2013-05-17 04:50:00,61.0,57.7,30.03,West,263,0.0,0.0,89,0.00,,---,0.00,VWS V14.01,2013-05-17 08:50:00,
2013-05-17 04:55:00,60.9,57.6,30.03,West,263,0.0,0.0,89,0.00,,---,0.00,VWS V14.01,2013-05-17 08:55:00,
2013-05-17 05:00:00,60.8,57.8,30.03,West,263,0.0,0.0,90,0.00,,---,0.00,VWS V14.01,2013-05-17 09:00:00,
2013-05-17 05:05:00,60.7,57.8,30.04,West,263,0.0,0.0,90,0.00,,---,0.00,VWS V14.01,2013-05-17 09:05:00,
2013-05-17 05:10:00,60.6,58.0,30.04,West,263,0.0,0.0,91,0.00,,---,0.00,VWS V14.01,2013-05-17 09:10:00,
2013-05-17 05:15:00,60.5,57.9,30.04,West,263,0.0,0.0,91,0.00,,---,0.00,VWS V14.01,2013-05-17 09:15:00,
2013-05-17 05:20:00,60.6,58.3,30.04,West,263,0.0,0.0,92,0.00,,---,0.00,VWS V14.01,2013-05-17 09:20:00,
2013-05-17 05:25:00,60.6,58.3,30.04,West,263,0.0,0.0,92,0.00,,---,0.00,VWS V14.01,2013-05-17 09:25:00,
2013-05-17 05:30:00,60.5,58.2,30.05,West,263,0.0,0.0,92,0.00,,---,0.00,VWS V14.01,2013-05-17 09:30:00,
2013-05-17 05:35:00,60.6,58.3,30.05,West,263,0.0,0.0,92,0.00,,---,0.00,VWS V14.01,2013-05-17 09:35:00,
2013-05-17 05:40:00,60.6,58.3,30.05,West,263,0.0,0.0,92,0.00,,---,0.00,VWS V14.01,2013-05-17 09:40:00,
2013-05-17 05:45:00,60.6,58.3,30.05,West,263,0.0,0.0,92,0.00,,---,0.00,VWS V14.01,2013-05-17 09:45:00,
2013-05-17 05:50:00,60.5,58.2,30.06,West,263,0.0,0.0,92,0.00,,---,0.00,VWS V14.01,2013-05-17 09:50:00,
2013-05-17 05:55:00,60.5,58.2,30.06,West,263,0.0,0.0,92,0.00,,---,0.00,VWS V14.01,2013-05-17 09:55:00,
2013-05-17 06:00:00,60.4,58.1,30.06,West,263,0.0,0.0,92,0.00,,---,0.00,VWS V14.01,2013-05-17 10:00:00,
2013-05-17 06:05:00,60.3,58.0,30.06,West,263,0.0,0.0,92,0.00,,---,0.00,VWS V14.01,2013-05-17 10:05:00,
2013-05-17 06:10:00,60.2,57.9,30.06,West,263,0.0,0.0,92,0.00,,---,0.00,VWS V14.01,2013-05-17 10:10:00,
2013-05-17 06:15:00,60.2,57.9,30.06,West,263,0.0,0.0,92,0.00,,---,0.00,VWS V14.01,2013-05-17 10:15:00,
2013-05-17 06:20:00,60.1,57.8,30.06,West,263,0.0,0.0,92,0.00,,---,0.00,VWS V14.01,2013-05-17 10:20:00,
2013-05-17 06:25:00,60.0,57.4,30.06,West,263,0.0,0.0,91,0.00,,---,0.00,VWS V14.01,2013-05-17 10:25:00,
2013-05-17 06:30:00,59.9,57.6,30.07,West,263,0.0,0.0,92,0.00,,---,0.00,VWS V14.01,2013-05-17 10:30:00,
2013-05-17 06:35:00,59.9,57.6,30.07,West,263,0.0,0.0,92,0.00,,---,0.00,VWS V14.01,2013-05-17 10:35:00,
2013-05-17 06:40:00,59.9,57.6,30.07,West,263,0.0,0.0,92,0.00,,---,0.00,VWS V14.01,2013-05-17 10:40:00,
2013-05-17 06:45:00,59.9,57.6,30.07,West,263,0.0,0.0,92,0.00,,---,0.00,VWS V14.01,2013-05-17 10:45:00,
2013-05-17 06:50:00,59.9,57.6,30.07,West,263,0.0,0.0,92,0.00,,---,0.00,VWS V14.01,2013-05-17 10:50:00,
2013-05-17 06:55:00,59.9,57.6,30.08,West,263,0.0,0.0,92,0.00,,---,0.00,VWS V14.01,2013-05-17 10:55:00,
2013-05-17 07:00:00,60.0,57.4,30.08,West,263,0.0,0.0,91,0.00,,---,0.00,VWS V14.01,2013-05-17 11:00:00,
2013-05-17 07:05:00,60.1,57.8,30.08,West,263,0.0,0.0,92,0.00,,---,0.00,VWS V14.01,2013-05-17 11:05:00,
2013-05-17 07:10:00,60.3,58.0,30.08,West,263,0.0,0.0,92,0.00,,---,0.00,VWS V14.01,2013-05-17 11:10:00,
2013-05-17 07:15:00,60.5,58.2,30.08,West,263,0.0,0.0,92,0.00,,---,0.00,VWS V14.01,2013-05-17 11:15:00,
2013-05-17 07:20:00,60.7,58.4,30.08,West,263,0.0,0.0,92,0.00,,---,0.00,VWS V14.01,2013-05-17 11:20:00,
2013-05-17 07:25:00,60.9,58.6,30.08,West,263,0.0,0.0,92,0.00,,---,0.00,VWS V14.01,2013-05-17 11:25:00,
2013-05-17 07:30:00,61.1,59.1,30.08,West,263,0.0,0.0,93,0.00,,---,0.00,VWS V14.01,2013-05-17 11:30:00,
2013-05-17 07:35:00,61.2,58.9,30.08,West,263,0.0,0.0,92,0.00,,---,0.00,VWS V14.01,2013-05-17 11:35:00,
2013-05-17 07:40:00,61.4,59.1,30.09,West,263,0.0,0.0,92,0.00,,---,0.00,VWS V14.01,2013-05-17 11:40:00,
2013-05-17 07:45:00,61.6,59.3,30.09,West,263,0.0,0.0,92,0.00,,---,0.00,VWS V14.01,2013-05-17 11:45:00,
2013-05-17 07:50:00,61.7,59.4,30.09,West,263,0.0,0.0,92,0.00,,---,0.00,VWS V14.01,2013-05-17 11:50:00,
2013-05-17 07:55:00,61.8,59.2,30.09,West,263,0.0,0.0,91,0.00,,---,0.00,VWS V14.01,2013-05-17 11:55:00,
2013-05-17 08:00:00,61.9,59.2,30.09,West,263,0.0,0.0,91,0.00,,---,0.00,VWS V14.01,2013-05-17 12:00:00,
2013-05-17 08:05:00,62.1,59.5,30.09,West,263,0.0,0.0,91,0.00,,---,0.00,VWS V14.01,2013-05-17 12:05:00,
2013-05-17 08:10:00,62.4,59.4,30.09,West,263,0.0,0.0,90,0.00,,---,0.00,VWS V14.01,2013-05-17 12:10:00,
2013-05-17 08:15:00,62.9,59.9,30.09,West,263,0.0,0.0,90,0.00,,---,0.00,VWS V14.01,2013-05-17 12:15:00,
2013-05-17 08:20:00,63.4,59.8,30.10,West,263,0.0,0.0,88,0.00,,---,0.00,VWS V14.01,2013-05-17 12:20:00,
2013-05-17 08:25:00,63.9,60.0,30.10,West,263,0.0,0.0,87,0.00,,---,0.00,VWS V14.01,2013-05-17 12:25:00,
2013-05-17 08:30:00,64.3,60.0,30.10,West,263,0.0,0.0,86,0.00,,---,0.00,VWS V14.01,2013-05-17 12:30:00,
2013-05-17 08:35:00,64.6,60.3,30.10,West,263,0.0,0.0,86,0.00,,---,0.00,VWS V14.01,2013-05-17 12:35:00,
2013-05-17 08:40:00,64.9,60.6,30.10,West,263,0.0,0.0,86,0.00,,---,0.00,VWS V14.01,2013-05-17 12:40:00,
2013-05-17 08:45:00,65.3,61.0,30.10,West,263,0.0,0.0,86,0.00,,---,0.00,VWS V14.01,2013-05-17 12:45:00,
2013-05-17 08:50:00,65.6,60.6,30.10,West,263,0.0,0.0,84,0.00,,---,0.00,VWS V14.01,2013-05-17 12:50:00,
2013-05-17 08:55:00,65.9,60.6,30.10,West,263,0.0,0.0,83,0.00,,---,0.00,VWS V14.01,2013-05-17 12:55:00,
2013-05-17 09:00:00,66.2,60.9,30.10,West,263,0.0,0.0,83,0.00,,---,0.00,VWS V14.01,2013-05-17 13:00:00,
2013-05-17 09:04:00,66.6,61.6,30.10,West,263,0.0,0.0,84,0.00,,---,0.00,VWS V14.01,2013-05-17 13:04:00,
2013-05-17 09:09:00,66.8,61.8,30.10,West,263,0.0,0.0,84,0.00,,---,0.00,VWS V14.01,2013-05-17 13:09:00,
2013-05-17 09:14:00,67.0,61.3,30.10,West,263,0.0,0.0,82,0.00,,---,0.00,VWS V14.01,2013-05-17 13:14:00,
2013-05-17 09:19:00,67.1,61.4,30.10,West,263,0.0,0.0,82,0.00,,---,0.00,VWS V14.01,2013-05-17 13:19:00,
2013-05-17 09:24:00,67.5,61.8,30.10,West,263,0.0,0.0,82,0.00,,---,0.00,VWS V14.01,2013-05-17 13:24:00,
2013-05-17 09:29:00,68.0,62.3,30.11,West,263,0.0,0.0,82,0.00,,---,0.00,VWS V14.01,2013-05-17 13:29:00,
2013-05-17 09:34:00,68.8,62.0,30.11,West,263,0.0,0.0,79,0.00,,---,0.00,VWS V14.01,2013-05-17 13:34:00,
2013-05-17 09:39:00,69.6,61.7,30.10,West,263,0.0,0.0,76,0.00,,---,0.00,VWS V14.01,2013-05-17 13:39:00,
2013-05-17 09:44:00,70.6,61.9,30.10,West,263,0.0,0.0,74,0.00,,---,0.00,VWS V14.01,2013-05-17 13:44:00,
2013-05-17 09:49:00,71.5,62.4,30.10,West,263,0.0,0.0,73,0.00,,---,0.00,VWS V14.01,2013-05-17 13:49:00,
2013-05-17 09:54:00,72.2,62.3,30.10,West,263,0.0,0.0,71,0.00,,---,0.00,VWS V14.01,2013-05-17 13:54:00,
2013-05-17 09:59:00,73.0,63.5,30.10,West,263,0.0,0.0,72,0.00,,---,0.00,VWS V14.01,2013-05-17 13:59:00,
2013-05-17 10:04:00,73.3,62.5,30.10,West,263,0.0,0.0,69,0.00,,---,0.00,VWS V14.01,2013-05-17 14:04:00,
2013-05-17 10:09:00,73.4,61.8,30.10,NW,304,1.0,2.0,67,0.00,,---,0.00,VWS V14.01,2013-05-17 14:09:00,
2013-05-17 10:14:00,73.8,62.2,30.10,NW,304,0.0,1.0,67,0.00,,---,0.00,VWS V14.01,2013-05-17 14:14:00,
2013-05-17 10:19:00,74.0,61.1,30.10,NW,304,0.0,3.0,64,0.00,,---,0.00,VWS V14.01,2013-05-17 14:19:00,
2013-05-17 10:24:00,74.4,62.7,30.10,NW,304,0.0,1.0,67,0.00,,---,0.00,VWS V14.01,2013-05-17 14:24:00,
2013-05-17 10:29:00,74.8,61.4,30.10,NW,304,0.0,2.0,63,0.00,,---,0.00,VWS V14.01,2013-05-17 14:29:00,
2013-05-17 10:34:00,75.4,62.8,30.10,NW,304,0.0,1.0,65,0.00,,---,0.00,VWS V14.01,2013-05-17 14:34:00,
2013-05-17 10:39:00,75.6,63.0,30.11,NW,304,0.0,2.0,65,0.00,,---,0.00,VWS V14.01,2013-05-17 14:39:00,
2013-05-17 10:44:00,75.7,62.7,30.11,NW,317,1.0,3.0,64,0.00,,---,0.00,VWS V14.01,2013-05-17 14:44:00,
2013-05-17 10:49:00,75.9,61.5,30.11,NW,317,1.0,2.0,61,0.00,,---,0.00,VWS V14.01,2013-05-17 14:49:00,
2013-05-17 10:54:00,76.3,62.8,30.10,NW,317,0.0,2.0,63,0.00,,---,0.00,VWS V14.01,2013-05-17 14:54:00,
2013-05-17 10:59:00,76.9,62.9,30.10,ENE,60,0.0,2.0,62,0.00,,---,0.00,VWS V14.01,2013-05-17 14:59:00,
2013-05-17 11:04:00,77.1,63.1,30.10,ENE,60,2.0,2.0,62,0.00,,---,0.00,VWS V14.01,2013-05-17 15:04:00,
2013-05-17 11:09:00,77.2,61.3,30.10,WNW,290,1.0,3.0,58,0.00,,---,0.00,VWS V14.01,2013-05-17 15:09:00,
2013-05-17 11:14:00,76.9,59.5,30.10,NNW,332,3.0,4.0,55,0.00,,---,0.00,VWS V14.01,2013-05-17 15:14:00,
2013-05-17 11:19:00,76.8,60.9,30.10,WSW,257,1.0,3.0,58,0.00,,---,0.00,VWS V14.01,2013-05-17 15:19:00,
2013-05-17 11:24:00,77.0,60.1,30.10,West,274,2.0,3.0,56,0.00,,---,0.00,VWS V14.01,2013-05-17 15:24:00,
2013-05-17 11:29:00,77.3,60.9,30.10,West,277,2.0,2.0,57,0.00,,---,0.00,VWS V14.01,2013-05-17 15:29:00,
2013-05-17 11:34:00,77.9,61.5,30.10,West,263,0.0,4.0,57,0.00,,---,0.00,VWS V14.01,2013-05-17 15:34:00,
2013-05-17 11:39:00,78.6,62.6,30.10,West,263,2.0,2.0,58,0.00,,---,0.00,VWS V14.01,2013-05-17 15:39:00,
2013-05-17 11:44:00,78.5,61.0,30.10,South,177,1.0,3.0,55,0.00,,---,0.00,VWS V14.01,2013-05-17 15:44:00,
2013-05-17 11:49:00,78.7,61.7,30.10,South,177,0.0,2.0,56,0.00,,---,0.00,VWS V14.01,2013-05-17 15:49:00,
2013-05-17 11:54:00,79.0,62.0,30.10,WSW,244,0.0,2.0,56,0.00,,---,0.00,VWS V14.01,2013-05-17 15:54:00,
2013-05-17 11:59:00,79.2,63.7,30.10,WSW,244,0.0,2.0,59,0.00,,---,0.00,VWS V14.01,2013-05-17 15:59:00,
2013-05-17 12:04:00,79.3,63.3,30.10,WSW,244,0.0,1.0,58,0.00,,---,0.00,VWS V14.01,2013-05-17 16:04:00,
2013-05-17 12:09:00,79.6,62.5,30.10,SSW,207,0.0,2.0,56,0.00,,---,0.00,VWS V14.01,2013-05-17 16:09:00,
2013-05-17 12:14:00,80.3,64.2,30.10,SSE,153,0.0,2.0,58,0.00,,---,0.00,VWS V14.01,2013-05-17 16:14:00,
2013-05-17 12:19:00,80.6,62.4,30.10,SSE,148,0.0,2.0,54,0.00,,---,0.00,VWS V14.01,2013-05-17 16:19:00,
2013-05-17 12:24:00,80.6,62.4,30.10,SE,135,1.0,2.0,54,0.00,,---,0.00,VWS V14.01,2013-05-17 16:24:00,
2013-05-17 12:29:00,79.8,62.7,30.10,North,11,1.0,3.0,56,0.00,,---,0.00,VWS V14.01,2013-05-17 16:29:00,
2013-05-17 12:34:00,80.0,61.9,30.10,North,11,2.0,2.0,54,0.00,,---,0.00,VWS V14.01,2013-05-17 16:34:00,
2013-05-17 12:39:00,80.6,63.0,30.10,SSE,161,2.0,5.0,55,0.00,,---,0.00,VWS V14.01,2013-05-17 16:39:00,
2013-05-17 12:44:00,81.1,62.4,30.09,SSE,165,0.0,5.0,53,0.00,,---,0.00,VWS V14.01,2013-05-17 16:44:00,
2013-05-17 12:49:00,81.7,64.0,30.10,SSE,150,0.0,4.0,55,0.00,,---,0.00,VWS V14.01,2013-05-17 16:49:00,
2013-05-17 12:54:00,82.3,62.9,30.09,SE,144,0.0,3.0,52,0.00,,---,0.00,VWS V14.01,2013-05-17 16:54:00,
2013-05-17 12:59:00,82.5,63.7,30.09,SE,134,0.0,2.0,53,0.00,,---,0.00,VWS V14.01,2013-05-17 16:59:00,
2013-05-17 13:04:00,82.5,62.6,30.09,SE,129,2.0,2.0,51,0.00,,---,0.00,VWS V14.01,2013-05-17 17:04:00,
2013-05-17 13:09:00,81.8,63.5,30.09,SE,138,7.0,7.0,54,0.00,,---,0.00,VWS V14.01,2013-05-17 17:09:00,
2013-05-17 13:14:00,81.8,63.0,30.09,SE,143,1.0,7.0,53,0.00,,---,0.00,VWS V14.01,2013-05-17 17:14:00,
2013-05-17 13:19:00,82.2,63.4,30.09,SE,131,1.0,5.0,53,0.00,,---,0.00,VWS V14.01,2013-05-17 17:19:00,
2013-05-17 13:24:00,82.3,66.1,30.09,SE,131,0.0,2.0,58,0.00,,---,0.00,VWS V14.01,2013-05-17 17:24:00,
2013-05-17 13:29:00,82.5,62.6,30.09,ESE,123,2.0,3.0,51,0.00,,---,0.00,VWS V14.01,2013-05-17 17:29:00,
2013-05-17 13:34:00,82.1,62.8,30.09,SE,131,2.0,4.0,52,0.00,,---,0.00,VWS V14.01,2013-05-17 17:34:00,
2013-05-17 13:39:00,81.6,62.3,30.09,North,11,2.0,3.0,52,0.00,,---,0.00,VWS V14.01,2013-05-17 17:39:00,
2013-05-17 13:44:00,81.1,64.4,30.09,ESE,118,0.0,3.0,57,0.00,,---,0.00,VWS V14.01,2013-05-17 17:44:00,
2013-05-17 13:49:00,81.4,62.6,30.09,ESE,110,0.0,2.0,53,0.00,,---,0.00,VWS V14.01,2013-05-17 17:49:00,
2013-05-17 13:54:00,81.9,63.6,30.09,SE,143,0.0,3.0,54,0.00,,---,0.00,VWS V14.01,2013-05-17 17:54:00,
2013-05-17 13:59:00,82.2,61.7,30.09,SE,144,0.0,5.0,50,0.00,,---,0.00,VWS V14.01,2013-05-17 17:59:00,
2013-05-17 14:04:00,82.6,63.8,30.08,NW,323,1.0,3.0,53,0.00,,---,0.00,VWS V14.01,2013-05-17 18:04:00,
2013-05-17 14:09:00,82.9,62.9,30.08,SE,145,0.0,3.0,51,0.00,,---,0.00,VWS V14.01,2013-05-17 18:09:00,
2013-05-17 14:14:00,83.3,62.2,30.08,SSE,165,4.0,6.0,49,0.00,,---,0.00,VWS V14.01,2013-05-17 18:14:00,
2013-05-17 14:19:00,83.0,64.1,30.08,SSE,167,0.0,3.0,53,0.00,,---,0.00,VWS V14.01,2013-05-17 18:19:00,
2013-05-17 14:24:00,82.8,62.8,30.08,South,176,1.0,3.0,51,0.00,,---,0.00,VWS V14.01,2013-05-17 18:24:00,
2013-05-17 14:29:00,82.6,65.8,30.08,SSE,158,3.0,4.0,57,0.00,,---,0.00,VWS V14.01,2013-05-17 18:29:00,
2013-05-17 14:34:00,82.3,62.9,30.08,SSE,158,0.0,4.0,52,0.00,,---,0.00,VWS V14.01,2013-05-17 18:34:00,
2013-05-17 14:39:00,81.8,63.5,30.08,SW,216,0.0,2.0,54,0.00,,---,0.00,VWS V14.01,2013-05-17 18:39:00,
2013-05-17 14:44:00,81.5,62.7,30.08,SW,216,0.0,1.0,53,0.00,,---,0.00,VWS V14.01,2013-05-17 18:44:00,
2013-05-17 14:49:00,81.4,63.7,30.08,SW,216,0.0,1.0,55,0.00,,---,0.00,VWS V14.01,2013-05-17 18:49:00,
2013-05-17 14:54:00,81.7,64.0,30.08,SW,216,0.0,1.0,55,0.00,,---,0.00,VWS V14.01,2013-05-17 18:54:00,
2013-05-17 14:59:00,82.3,64.5,30.07,South,171,0.0,6.0,55,0.00,,---,0.00,VWS V14.01,2013-05-17 18:59:00,
2013-05-17 15:04:00,83.0,64.7,30.07,SSE,167,3.0,5.0,54,0.00,,---,0.00,VWS V14.01,2013-05-17 19:04:00,
2013-05-17 15:09:00,83.4,65.6,30.07,NNE,31,2.0,3.0,55,0.00,,---,0.00,VWS V14.01,2013-05-17 19:09:00,
2013-05-17 15:14:00,83.0,65.2,30.07,NNE,13,1.0,3.0,55,0.00,,---,0.00,VWS V14.01,2013-05-17 19:14:00,
2013-05-17 15:19:00,82.5,64.2,30.07,NNE,13,0.0,1.0,54,0.00,,---,0.00,VWS V14.01,2013-05-17 19:19:00,
2013-05-17 15:24:00,82.1,64.3,30.08,SE,135,0.0,4.0,55,0.00,,---,0.00,VWS V14.01,2013-05-17 19:24:00,
2013-05-17 15:29:00,81.7,65.0,30.08,SE,135,0.0,1.0,57,0.00,,---,0.00,VWS V14.01,2013-05-17 19:29:00,
2013-05-17 15:34:00,81.1,63.4,30.08,SE,135,0.0,2.0,55,0.00,,---,0.00,VWS V14.01,2013-05-17 19:34:00,
2013-05-17 15:39:00,80.6,63.0,30.08,SE,146,0.0,1.0,55,0.00,,---,0.00,VWS V14.01,2013-05-17 19:39:00,
2013-05-17 15:44:00,79.6,63.5,30.08,SW,217,0.0,2.0,58,0.00,,---,0.00,VWS V14.01,2013-05-17 19:44:00,
2013-05-17 15:49:00,78.7,63.7,30.08,SSW,209,1.0,4.0,60,0.00,,---,0.00,VWS V14.01,2013-05-17 19:49:00,
2013-05-17 15:54:00,78.0,63.9,30.08,SW,225,1.0,4.0,62,0.00,,---,0.00,VWS V14.01,2013-05-17 19:54:00,
2013-05-17 15:58:00,77.1,64.0,30.08,SE,133,0.0,4.0,64,0.00,,---,0.00,VWS V14.01,2013-05-17 19:58:00,
2013-05-17 16:03:00,76.4,64.2,30.08,SE,141,0.0,4.0,66,0.00,,---,0.00,VWS V14.01,2013-05-17 20:03:00,
2013-05-17 16:08:00,75.8,64.1,30.08,SE,141,0.0,2.0,67,0.00,,---,0.00,VWS V14.01,2013-05-17 20:08:00,
2013-05-17 16:13:00,75.2,64.3,30.08,SE,138,0.0,3.0,69,0.00,,---,0.00,VWS V14.01,2013-05-17 20:13:00,
2013-05-17 16:18:00,75.0,64.6,30.08,SE,138,0.0,1.0,70,0.00,,---,0.00,VWS V14.01,2013-05-17 20:18:00,
2013-05-17 16:23:00,74.9,64.5,30.08,SE,138,0.0,2.0,70,0.00,,---,0.00,VWS V14.01,2013-05-17 20:23:00,
2013-05-17 16:28:00,74.9,64.9,30.08,SE,138,0.0,0.0,71,0.00,,---,0.00,VWS V14.01,2013-05-17 20:28:00,
2013-05-17 16:33:00,75.0,65.8,30.08,SE,138,0.0,0.0,73,0.00,,---,0.00,VWS V14.01,2013-05-17 20:33:00,
2013-05-17 16:38:00,75.3,66.1,30.08,SE,138,0.0,1.0,73,0.00,,---,0.00,VWS V14.01,2013-05-17 20:38:00,
2013-05-17 16:43:00,75.3,65.3,30.08,SE,138,0.0,0.0,71,0.00,,---,0.00,VWS V14.01,2013-05-17 20:43:00,
2013-05-17 16:48:00,75.1,65.9,30.08,SE,138,0.0,0.0,73,0.00,,---,0.00,VWS V14.01,2013-05-17 20:48:00,
2013-05-17 16:53:00,75.1,65.5,30.08,SE,138,0.0,0.0,72,0.00,,---,0.00,VWS V14.01,2013-05-17 20:53:00,
2013-05-17 16:58:00,75.1,65.9,30.07,SE,138,0.0,0.0,73,0.00,,---,0.00,VWS V14.01,2013-05-17 20:58:00,
2013-05-17 17:03:00,75.1,65.9,30.07,SE,138,0.0,0.0,73,0.00,,---,0.00,VWS V14.01,2013-05-17 21:03:00,
2013-05-17 17:08:00,75.1,66.6,30.07,SE,138,0.0,0.0,75,0.00,,---,0.00,VWS V14.01,2013-05-17 21:08:00,
2013-05-17 17:13:00,75.1,66.6,30.07,SE,138,0.0,0.0,75,0.00,,---,0.00,VWS V14.01,2013-05-17 21:13:00,
2013-05-17 17:18:00,75.1,66.6,30.08,SE,138,0.0,0.0,75,0.00,,---,0.00,VWS V14.01,2013-05-17 21:18:00,
2013-05-17 17:23:00,74.9,66.8,30.07,SE,138,0.0,0.0,76,0.00,,---,0.00,VWS V14.01,2013-05-17 21:23:00,
2013-05-17 17:28:00,74.9,67.2,30.07,SE,138,0.0,0.0,77,0.00,,---,0.00,VWS V14.01,2013-05-17 21:28:00,
2013-05-17 17:33:00,74.8,67.1,30.07,SE,138,0.0,1.0,77,0.00,,---,0.00,VWS V14.01,2013-05-17 21:33:00,
2013-05-17 17:38:00,74.6,67.3,30.07,SE,138,0.0,0.0,78,0.00,,---,0.00,VWS V14.01,2013-05-17 21:38:00,
2013-05-17 17:43:00,74.3,67.0,30.07,SE,138,0.0,1.0,78,0.00,,---,0.00,VWS V14.01,2013-05-17 21:43:00,
2013-05-17 17:48:00,74.2,65.4,30.07,SE,138,1.0,1.0,74,0.00,,---,0.00,VWS V14.01,2013-05-17 21:48:00,
2013-05-17 17:53:00,74.2,65.0,30.07,SE,138,0.0,2.0,73,0.00,,---,0.00,VWS V14.01,2013-05-17 21:53:00,
2013-05-17 17:58:00,74.3,65.1,30.07,SE,136,0.0,1.0,73,0.00,,---,0.00,VWS V14.01,2013-05-17 21:58:00,
2013-05-17 18:03:00,74.2,64.6,30.07,SE,136,0.0,1.0,72,0.00,,---,0.00,VWS V14.01,2013-05-17 22:03:00,
2013-05-17 18:08:00,74.2,65.0,30.07,SE,136,0.0,1.0,73,0.00,,---,0.00,VWS V14.01,2013-05-17 22:08:00,
2013-05-17 18:13:00,74.2,65.0,30.07,SE,136,0.0,1.0,73,0.00,,---,0.00,VWS V14.01,2013-05-17 22:13:00,
2013-05-17 18:18:00,74.1,64.9,30.07,SE,136,0.0,1.0,73,0.00,,---,0.00,VWS V14.01,2013-05-17 22:18:00,
2013-05-17 18:23:00,73.9,64.3,30.07,SE,136,0.0,0.0,72,0.00,,---,0.00,VWS V14.01,2013-05-17 22:23:00,
2013-05-17 18:28:00,73.9,64.7,30.07,SE,136,0.0,0.0,73,0.00,,---,0.00,VWS V14.01,2013-05-17 22:28:00,
2013-05-17 18:33:00,73.9,65.1,30.07,SE,136,0.0,0.0,74,0.00,,---,0.00,VWS V14.01,2013-05-17 22:33:00,
2013-05-17 18:38:00,73.8,65.0,30.07,SE,136,0.0,0.0,74,0.00,,---,0.00,VWS V14.01,2013-05-17 22:38:00,
2013-05-17 18:43:00,73.5,65.1,30.07,SE,136,0.0,0.0,75,0.00,,---,0.00,VWS V14.01,2013-05-17 22:43:00,
2013-05-17 18:48:00,73.3,64.9,30.07,SE,136,0.0,0.0,75,0.00,,---,0.00,VWS V14.01,2013-05-17 22:48:00,
2013-05-17 18:53:00,73.2,65.2,30.07,SE,136,0.0,0.0,76,0.00,,---,0.00,VWS V14.01,2013-05-17 22:53:00,
2013-05-17 18:58:00,73.1,65.5,30.07,SE,136,0.0,0.0,77,0.00,,---,0.00,VWS V14.01,2013-05-17 22:58:00,
2013-05-17 19:03:00,73.1,65.8,30.07,SE,136,0.0,0.0,78,0.00,,---,0.00,VWS V14.01,2013-05-17 23:03:00,
2013-05-17 19:08:00,73.1,65.8,30.07,SE,136,0.0,0.0,78,0.00,,---,0.00,VWS V14.01,2013-05-17 23:08:00,
2013-05-17 19:13:00,73.1,65.8,30.07,SE,136,0.0,0.0,78,0.00,,---,0.00,VWS V14.01,2013-05-17 23:13:00,
2013-05-17 19:18:00,73.1,65.8,30.07,SE,136,0.0,0.0,78,0.00,,---,0.00,VWS V14.01,2013-05-17 23:18:00,
2013-05-17 19:23:00,73.0,66.1,30.07,SE,136,0.0,0.0,79,0.00,,---,0.00,VWS V14.01,2013-05-17 23:23:00,
2013-05-17 19:28:00,72.9,66.4,30.07,SE,136,0.0,0.0,80,0.00,,---,0.00,VWS V14.01,2013-05-17 23:28:00,
2013-05-17 19:33:00,72.7,65.8,30.07,SE,136,0.0,0.0,79,0.00,,---,0.00,VWS V14.01,2013-05-17 23:33:00,
2013-05-17 19:38:00,72.6,66.1,30.07,SE,136,0.0,0.0,80,0.00,,---,0.00,VWS V14.01,2013-05-17 23:38:00,
2013-05-17 19:43:00,72.3,66.2,30.07,SE,136,0.0,0.0,81,0.00,,---,0.00,VWS V14.01,2013-05-17 23:43:00,
2013-05-17 19:48:00,72.1,65.9,30.07,SE,136,0.0,0.0,81,0.00,,---,0.00,VWS V14.01,2013-05-17 23:48:00,
2013-05-17 19:53:00,71.9,66.1,30.07,SE,136,0.0,0.0,82,0.00,,---,0.00,VWS V14.01,2013-05-17 23:53:00,
2013-05-17 19:58:00,71.7,65.9,30.07,SE,136,0.0,0.0,82,0.00,,---,0.00,VWS V14.01,2013-05-17 23:58:00,
2013-05-17 20:03:00,71.6,66.2,30.07,SE,136,0.0,0.0,83,0.00,,---,0.00,VWS V14.01,2013-05-18 00:03:00,
2013-05-17 20:08:00,71.4,66.0,30.07,SE,136,0.0,0.0,83,0.00,,---,0.00,VWS V14.01,2013-05-18 00:08:00,
2013-05-17 20:13:00,71.2,66.1,30.07,SE,136,0.0,0.0,84,0.00,,---,0.00,VWS V14.01,2013-05-18 00:13:00,
2013-05-17 20:18:00,71.1,66.4,30.08,SE,136,0.0,0.0,85,0.00,,---,0.00,VWS V14.01,2013-05-18 00:18:00,
2013-05-17 20:23:00,71.0,66.3,30.08,SE,136,0.0,0.0,85,0.00,,---,0.00,VWS V14.01,2013-05-18 00:23:00,
2013-05-17 20:28:00,70.8,66.1,30.08,SE,136,0.0,0.0,85,0.00,,---,0.00,VWS V14.01,2013-05-18 00:28:00,
2013-05-17 20:33:00,70.6,66.2,30.08,SE,136,0.0,0.0,86,0.00,,---,0.00,VWS V14.01,2013-05-18 00:33:00,
2013-05-17 20:38:00,70.4,66.0,30.08,SE,136,0.0,0.0,86,0.00,,---,0.00,VWS V14.01,2013-05-18 00:38:00,
2013-05-17 20:43:00,70.3,66.2,30.08,SE,136,0.0,0.0,87,0.00,,---,0.00,VWS V14.01,2013-05-18 00:43:00,
2013-05-17 20:48:00,70.2,66.2,30.09,SE,136,0.0,0.0,87,0.00,,---,0.00,VWS V14.01,2013-05-18 00:48:00,
2013-05-17 20:53:00,70.1,66.1,30.09,SE,136,0.0,0.0,87,0.00,,---,0.00,VWS V14.01,2013-05-18 00:53:00,
2013-05-17 20:58:00,69.9,65.9,30.09,SE,136,0.0,0.0,87,0.00,,---,0.00,VWS V14.01,2013-05-18 00:58:00,
2013-05-17 21:03:00,69.8,66.1,30.09,SE,136,0.0,0.0,88,0.00,,---,0.00,VWS V14.01,2013-05-18 01:03:00,
2013-05-17 21:08:00,69.7,66.0,30.09,SE,136,0.0,0.0,88,0.00,,---,0.00,VWS V14.01,2013-05-18 01:08:00,
2013-05-17 21:13:00,69.5,65.8,30.09,SE,136,0.0,0.0,88,0.00,,---,0.00,VWS V14.01,2013-05-18 01:13:00,
2013-05-17 21:18:00,69.4,65.7,30.09,SE,136,0.0,0.0,88,0.00,,---,0.00,VWS V14.01,2013-05-18 01:18:00,
2013-05-17 21:23:00,69.3,65.9,30.09,SE,136,0.0,0.0,89,0.00,,---,0.00,VWS V14.01,2013-05-18 01:23:00,
2013-05-17 21:28:00,69.2,65.8,30.09,SE,136,0.0,0.0,89,0.00,,---,0.00,VWS V14.01,2013-05-18 01:28:00,
2013-05-17 21:33:00,69.1,65.7,30.09,SE,136,0.0,0.0,89,0.00,,---,0.00,VWS V14.01,2013-05-18 01:33:00,
2013-05-17 21:38:00,69.0,65.6,30.10,SE,136,0.0,0.0,89,0.00,,---,0.00,VWS V14.01,2013-05-18 01:38:00,
2013-05-17 21:43:00,68.9,65.8,30.10,SE,136,0.0,0.0,90,0.00,,---,0.00,VWS V14.01,2013-05-18 01:43:00,
2013-05-17 21:48:00,68.6,65.2,30.10,SE,136,0.0,0.0,89,0.00,,---,0.00,VWS V14.01,2013-05-18 01:48:00,
2013-05-17 21:53:00,68.4,65.4,30.10,SE,136,0.0,0.0,90,0.00,,---,0.00,VWS V14.01,2013-05-18 01:53:00,
2013-05-17 21:58:00,68.3,65.6,30.10,SE,136,0.0,0.0,91,0.00,,---,0.00,VWS V14.01,2013-05-18 01:58:00,
2013-05-17 22:03:00,68.2,65.5,30.10,SE,136,0.0,0.0,91,0.00,,---,0.00,VWS V14.01,2013-05-18 02:03:00,
2013-05-17 22:08:00,68.1,65.4,30.10,SE,136,0.0,0.0,91,0.00,,---,0.00,VWS V14.01,2013-05-18 02:08:00,
2013-05-17 22:13:00,68.1,65.4,30.10,SE,136,0.0,0.0,91,0.00,,---,0.00,VWS V14.01,2013-05-18 02:13:00,
2013-05-17 22:18:00,68.0,65.3,30.10,SE,136,0.0,0.0,91,0.00,,---,0.00,VWS V14.01,2013-05-18 02:18:00,
2013-05-17 22:23:00,67.9,65.2,30.10,SE,136,0.0,0.0,91,0.00,,---,0.00,VWS V14.01,2013-05-18 02:23:00,
2013-05-17 22:28:00,67.8,65.1,30.10,SE,136,0.0,0.0,91,0.00,,---,0.00,VWS V14.01,2013-05-18 02:28:00,
2013-05-17 22:33:00,67.8,65.1,30.10,SE,136,0.0,0.0,91,0.00,,---,0.00,VWS V14.01,2013-05-18 02:33:00,
2013-05-17 22:38:00,67.7,65.3,30.10,SE,136,0.0,0.0,92,0.00,,---,0.00,VWS V14.01,2013-05-18 02:38:00,
2013-05-17 22:43:00,67.7,65.3,30.10,SE,136,0.0,0.0,92,0.00,,---,0.00,VWS V14.01,2013-05-18 02:43:00,
2013-05-17 22:48:00,67.6,65.2,30.10,SE,136,0.0,0.0,92,0.00,,---,0.00,VWS V14.01,2013-05-18 02:48:00,
2013-05-17 22:53:00,67.6,65.2,30.11,SE,136,0.0,0.0,92,0.00,,---,0.00,VWS V14.01,2013-05-18 02:53:00,
2013-05-17 22:57:00,67.6,65.2,30.11,SE,136,0.0,0.0,92,0.00,,---,0.00,VWS V14.01,2013-05-18 02:57:00,
2013-05-17 23:02:00,67.5,65.1,30.12,SE,136,3.0,4.0,92,0.00,,---,0.00,VWS V14.01,2013-05-18 03:02:00,
2013-05-17 23:07:00,67.5,64.8,30.12,SE,141,0.0,4.0,91,0.00,,---,0.00,VWS V14.01,2013-05-18 03:07:00,
2013-05-17 23:12:00,67.5,64.8,30.12,SSE,148,0.0,3.0,91,0.00,,---,0.00,VWS V14.01,2013-05-18 03:12:00,
2013-05-17 23:17:00,67.5,64.8,30.12,SSE,148,0.0,1.0,91,0.00,,---,0.00,VWS V14.01,2013-05-18 03:17:00,
2013-05-17 23:22:00,67.5,64.8,30.12,SSE,148,0.0,0.0,91,0.00,,---,0.00,VWS V14.01,2013-05-18 03:22:00,
2013-05-17 23:27:00,67.5,64.8,30.12,SSE,148,0.0,0.0,91,0.00,,---,0.00,VWS V14.01,2013-05-18 03:27:00,
2013-05-17 23:32:00,67.5,64.8,30.12,SSE,148,0.0,1.0,91,0.00,,---,0.00,VWS V14.01,2013-05-18 03:32:00,
2013-05-17 23:37:00,67.4,65.0,30.12,SSE,148,0.0,1.0,92,0.00,,---,0.00,VWS V14.01,2013-05-18 03:37:00,
2013-05-17 23:42:00,67.4,65.0,30.12,SSE,148,0.0,0.0,92,0.00,,---,0.00,VWS V14.01,2013-05-18 03:42:00,
2013-05-17 23:47:00,67.4,65.0,30.12,SSE,148,0.0,0.0,92,0.00,,---,0.00,VWS V14.01,2013-05-18 03:47:00,
2013-05-17 23:52:00,67.4,64.7,30.12,SSE,148,0.0,0.0,91,0.00,,---,0.00,VWS V14.01,2013-05-18 03:52:00,
2013-05-17 23:57:00,67.4,65.0,30.13,SSE,148,1.0,1.0,92,0.00,,---,0.00,VWS V14.01,2013-05-18 03:57:00,